Tracking 35331 objects as of 16-Sep-2026
HD Live streaming from Space Station
objects crossing your sky now

THORAD AGENA D DEB

Track THORAD AGENA D DEB now!
10-day predictions


NORAD ID: 19150
Int'l Code: 1970-025PS
Launch date: April 8, 1970
Source: United States (US)
Launch site: AIR FORCE WESTERN TEST RANGE (AFWTR)

Note: This is SATELLITE DEBRIS
Your satellite tracking list
Your tracking list is empty




NASA's NSSDC Master Catalog

Two Line Element Set (TLE):
1 19150U 70025PS  26258.71650430  .00007060  00000-0  29133-2 0  9992
2 19150 100.3287 224.1359 0019543 274.3205  85.5737 14.27063861918315
Source of the keplerian elements: AFSPC